Weather in St. Gallen

Switzerland     47°25′39″N   9°22′40″E
temp.,
°C
wind,
m/s
gust,
m/s
humid.,
%
clouds,
%
prec.,
mm/h
press.,
hPa
HPBL,
m
12 may, wed
wed1223:00+9s3390100 2.5 1013203
02:00+9sw51090100 6.8 1014640
05:00+9wsw51088100 5.3 1014774
08:00+9sw4684100 6.9 1015540
11:00+10sw0274100 0.6 1014703
14:00+12e2168100 0.9 1012874
17:00+13n3264100 0.3 1011793
20:00+11n2281100 0.8 101179
13 may, thu
thu1323:00+9nnw0182100 0.2 101175
02:00+9s1184100 0.3 101188
05:00+9sw2284100 0.1 101080
08:00+10sw127695 0.4 1010174
11:00+12w466897 0.9 10091049
14:00+11w787988 2.7 1009940
17:00+11w787183 0.8 10091240
20:00+10wsw477186 0.8 1010797
14 may, fri
fri1423:00+8ssw337643 0.0 1011174
02:00+8ssw227497 0.0 1011127
05:00+8sw127599 0.0 1010119
08:00+9s2478100 0.1 1011371
11:00+11w236988 0.5 1011932
14:00+13sw126198 1.6 1009859
17:00+14wnw136095 0.8 1009469
20:00+12wsw236957 1.4 101082
15 may, sat
sat1523:00+8wsw348477 0.3 1013106
02:00+8ssw2384100 0.4 1014143
05:00+8sw228396 0.0 1014148
08:00+9ssw1179100 0.0 1014194
11:00+12n1262100 0.1 1013861
14:00+13n2159100 0.1 1010840
17:00+14sw1156100 0.0 1009353
20:00+11s1177100 1.3 100990
16 may, sun
sun1623:00+9s2391100 3.0 1010209
02:00+9s4687100 4.4 1010272
05:00+9ssw498647 1.6 1012419
08:00+11wsw488485 2.1 1012912
11:00+11wsw5981100 0.8 10121066
14:00+12sw4775100 0.9 10121051
17:00+14wsw3874100 0.3 1010907
20:00+14wsw2475100 0.5 1010204